ICEYE-X24

导读 | 星芒AI

ICEYE-X24 是 ICEYE 公司研发的一颗合成孔径雷达(SAR)成像卫星,具备高分辨率和全天候、全天时成像能力。该卫星采用小型卫星平台,搭载先进的 SAR 传感器,能够提供厘米级分辨率的地球观测数据。它主要用于灾害监测、环境评估、安全与国防等领域,支持全球范围内的快速响应和数据获取。ICEYE-X24 的发射进一步增强了 ICEYE 的星座能力,提升了任务灵活性和数据更新频率。

基本信息
目录编号:
52755
目录名称:
ICEYE-X24
国际标识:
2022-057Z
轨道中心:
EARTH
卫星名称:
ICEYE-X24
卫星全名:
--
卫星状态:
已陨落 最后检测时间 2024-12-17
发射日期:
2022-05-25 UTC
国别 :
美国 (US)
星等 :
--
轨道信息
数据来源 国际轨道数据
星历时间: 2024-12-14T17:54:53+0800
轨道信息已过期318天
半长轴: 6522.03km
偏心率: 0.0009788
轨道倾角: 97.539°
近地点辐角 317.057°
升交点赤经 128.414°
平近点角 42.997°
近地点: 137.511km
远地点: 150.279km
周期: 87.364分钟
每日圈数: 16.482712
详细信息
使用方式:
暂无